Theta_e
287 287 287 286 286 286 285 285 285 286 286 286 286 287 287 287 287 288 288 287 288 288
286 286 286 285 286 285 284 285 286 286 285 285 286 286 286 286 286 287 287 287 288 287
286 286 285 285 285 285 284 285 285 285 285 285 285 286 287 287 287 287 288 288 287 287
285 285 285 285 285 284 284 284 284 284 285 285 285 286 286 287 287 286 287 287 287 286
285 285 284 284 284 284 283 284 283 284 284 284 284 285 285 286 287 286 285 284 284 285
284 284 282 282 281 282 280 280 281 283 283 282 281 282 285 286 286 286 284 284 284 285
284 283 281 279 278 277 277 278 279 280 279 278 278 283 285 286 286 284 283 283 284 285
283 281 279 276 275 276 281 279 276 275 276 276 279 284 286 286 284 282 281 281 283 284
281 279 278 276 273 273 275 280 274 275 275 275 280 283 286 286 282 281 281 280 283 284
280 279 277 274 271 273 274 273 275 273 274 275 277 281 284 285 282 280 279 279 280 281
280 279 276 273 272 272 273 274 275 274 273 273 275 280 283 284 279 277 276 277 278 280
280 278 276 274 273 272 272 273 274 275 274 273 274 279 282 283 278 278 277 276 277 279
280 279 277 278 273 271 272 275 276 276 273 272 275 278 281 282 279 277 277 275 276 279
280 280 280 278 273 272 272 275 274 275 274 273 274 274 281 283 278 278 276 276 276 277
Wind_Speed
8 5 5 6 5 4 3 2 2 0 1 2 3 3 3 2 3 3 3 6 6 5
8 8 7 7 5 4 4 2 3 1 0 1 2 2 3 2 3 3 4 5 6 6
8 7 7 7 7 5 4 3 3 2 1 1 3 2 3 3 3 3 4 4 6 6
8 8 8 6 6 5 5 4 3 3 3 3 3 2 3 3 3 4 5 6 6 7
8 8 8 7 7 7 6 4 3 3 3 3 2 2 2 3 4 5 6 7 7 7
9 9 8 7 6 5 5 4 3 3 3 3 0 1 2 4 4 4 5 5 6 7
10 10 8 6 6 5 5 5 4 3 2 3 1 2 2 3 3 2 3 5 6 6
9 8 7 7 6 5 6 5 4 3 2 2 1 2 2 1 3 4 4 3 5 5
10 9 8 7 7 6 6 5 4 4 4 4 2 4 4 2 2 3 3 4 4 6
10 10 10 8 7 7 7 5 6 5 4 5 4 5 3 3 1 2 3 3 5 5
11 11 9 9 8 5 5 6 5 5 5 4 4 7 5 3 2 1 2 3 3 5
13 12 11 11 10 6 5 5 5 4 6 5 5 7 6 3 1 0 2 2 3 4
14 13 13 12 10 5 4 5 5 6 5 5 5 6 7 4 2 1 2 2 2 5
13 13 12 10 6 7 7 5 5 6 5 6 6 6 10 8 4 3 2 2 2 2
Wind_Direction
150 152 159 157 152 147 154 159 159 155 358 12 6 4 338 318 301 287 290 288 285 284
154 157 159 153 146 149 142 160 166 191 299 26 35 352 295 280 288 293 287 279 279 279
163 156 154 156 157 155 143 163 180 204 142 56 52 318 307 295 298 299 305 290 288 293
162 159 153 164 155 161 154 165 185 203 114 59 18 6 328 321 321 322 311 305 298 297
156 156 161 167 168 170 156 161 172 195 131 93 34 347 336 338 343 324 340 335 319 306
167 166 174 168 164 163 141 169 182 202 153 109 9 312 325 334 322 337 338 306 306 310
176 175 175 163 163 167 155 170 168 210 173 118 260 245 264 299 293 324 322 319 316 315
169 160 156 161 170 176 168 181 162 191 205 213 189 238 270 290 348 323 318 329 305 296
161 161 172 168 174 176 175 181 179 188 218 226 216 242 286 353 355 330 314 318 323 319
166 173 180 168 168 187 184 175 202 202 204 241 237 233 243 333 3 312 311 313 329 324
172 180 170 167 186 182 175 189 189 212 203 214 259 249 228 244 128 208 293 303 312 313
177 177 173 185 189 181 180 184 189 197 195 201 229 243 246 245 169 261 305 308 305 309
177 178 184 189 182 168 184 193 182 201 203 203 223 222 225 213 189 271 284 300 298 306
178 181 186 179 160 170 182 174 192 204 193 204 208 226 225 219 181 206 229 253 269 282